Cortez, CO

4:06 AM MDT on May 27, 2017 (GMT -0600)
Cortez Municipal

Weather History for KCEZ - December, 2012

Change the Weather History Date:

Monday, December 3, 2012

  Actual Average Record
Temperature  
Mean Temperature 37 °F 31 °F  
Max Temperature 53 °F 44 °F 57 °F (2010)
Min Temperature 21 °F 17 °F 0 °F (2006)
Degree Days  
Heating Degree Days 28 34  
Month to date heating degree days 77 102  
Since 1 July heating degree days 1381 1627  
Cooling Degree Days 0 0  
Month to date cooling degree days 0 0  
Year to date cooling degree days 746 426  
Moisture  
Dew Point 29 °F    
Average Humidity 58    
Maximum Humidity 75    
Minimum Humidity 41    
Precipitation  
Precipitation 0.00 in 0.02 in 0.03 in (2005)
Month to date precipitation 0.00 0.07  
Year to date precipitation 6.58 12.80  
Sea Level Pressure  
Sea Level Pressure 30.08 in    
Wind  
Wind Speed 5 mph (WNW)    
Max Wind Speed 18 mph    
Max Gust Speed 23 mph    
Visibility 10 miles    
Events      
T = Trace of Precipitation, MM = Missing Value Source: NWS Daily Summary

Daily Weather History Graph

Daily Weather History Graph

Search for Another Location

Airport or City:

Trip Planner

Search our weather history database for the weather conditions in past years. The results will help you decide how hot, cold, wet, or windy it might be!

Date:

Astronomy

Dec. 03, 2012 Rise Set
Actual Time 7:12 AM MST 4:56 PM MST
Civil Twilight 6:43 AM MST 5:25 PM MST
Nautical Twilight 6:11 AM MST 5:57 PM MST
Astronomical Twilight 5:39 AM MST 6:29 PM MST
Moon 9:43 PM MST (12/3) 10:40 AM MST (12/3)
Length of Visible Light 10h 42m
Length of Day
9h 44m
Waning Gibbous, 77% of the Moon is Illuminated
Dec 3
Waning Gibbous
Dec 6
Last Quarter
Dec 13
New
Dec 19
First Quarter
Dec 28
Full

Hourly Weather History & Observations

Time (MST) Temp. Windchill Dew Point Humidity Pressure Visibility Wind Dir Wind Speed Gust Speed Precip Events Conditions
12:53 AM 45.0 °F 41.8 °F 23.0 °F 42% 29.92 in 10.0 mi SW 5.8 mph - N/A   Overcast
1:53 AM 46.9 °F - 30.0 °F 52% 29.93 in 10.0 mi WSW 5.8 mph - N/A   Partly Cloudy
2:53 AM 48.9 °F - 32.0 °F 52% 29.93 in 10.0 mi WSW 5.8 mph - N/A   Overcast
3:53 AM 48.0 °F - 33.1 °F 56% 29.94 in 10.0 mi Variable 3.5 mph - N/A   Overcast
4:53 AM 44.1 °F - 32.0 °F 63% 30.00 in 10.0 mi Calm Calm - N/A   Overcast
5:53 AM 41.0 °F 39.0 °F 30.0 °F 65% 30.04 in 10.0 mi West 3.5 mph - N/A   Overcast
6:53 AM 35.1 °F 31.0 °F 28.0 °F 76% 30.09 in 10.0 mi NNE 4.6 mph - N/A   Partly Cloudy
8:53 AM 39.0 °F 35.7 °F 30.0 °F 70% 30.10 in 10.0 mi East 4.6 mph - N/A   Scattered Clouds
9:53 AM 48.9 °F - 33.1 °F 54% 30.06 in 10.0 mi Calm Calm - N/A   Scattered Clouds
10:53 AM 52.0 °F - 33.1 °F 49% 30.07 in 10.0 mi West 8.1 mph - N/A   Overcast
11:53 AM 50.0 °F - 32.0 °F 50% 30.08 in 10.0 mi WNW 16.1 mph - N/A   Mostly Cloudy
12:53 PM 51.1 °F - 32.0 °F 48% 30.04 in 10.0 mi WNW 11.5 mph 18.4 mph N/A   Overcast
1:53 PM 51.1 °F - 33.1 °F 50% 30.05 in 10.0 mi WNW 11.5 mph - N/A   Overcast
2:53 PM 51.1 °F - 33.1 °F 50% 30.04 in 10.0 mi WNW 4.6 mph - N/A   Overcast
3:53 PM 51.1 °F - 33.1 °F 50% 30.05 in 10.0 mi West 4.6 mph - N/A   Mostly Cloudy
4:53 PM 48.0 °F - 32.0 °F 54% 30.09 in 10.0 mi Calm Calm - N/A   Partly Cloudy
5:53 PM 37.9 °F - 28.0 °F 68% 30.15 in 10.0 mi Calm Calm - N/A   Clear
6:53 PM 37.9 °F 35.5 °F 26.1 °F 62% 30.20 in 10.0 mi NNE 3.5 mph - N/A   Mostly Cloudy
7:53 PM 35.1 °F 28.6 °F 23.0 °F 61% 30.24 in 10.0 mi NE 8.1 mph - N/A   Clear
8:53 PM 27.0 °F - 19.9 °F 75% 30.27 in 10.0 mi Calm Calm - N/A   Clear
9:53 PM 25.0 °F 20.7 °F 18.0 °F 75% 30.27 in 10.0 mi East 3.5 mph - N/A   Clear
11:53 PM 21.0 °F 16.2 °F 15.1 °F 78% 30.30 in 10.0 mi East 3.5 mph - N/A   Clear